Oxnard, CA

7:45 PM PDT on September 22, 2019 (GMT -0700)
Oxnard

Weather History for KOXR - August, 2019

Change the Weather History Date:

Sunday, August 25, 2019

  Actual Average Record
Temperature  
Mean Temperature 68 °F -  
Max Temperature 73 °F 75 °F 83 °F (1988)
Min Temperature 63 °F 58 °F 48 °F (1949)
Cooling Degree Days 2    
Growing Degree Days 18 (Base 50)    
Moisture  
Dew Point 62 °F    
Average Humidity 83    
Maximum Humidity 90    
Minimum Humidity 73    
Precipitation  
Precipitation 0.00 in - - ()
Sea Level Pressure  
Sea Level Pressure 29.95 in    
Wind  
Wind Speed 4 mph (WNW)    
Max Wind Speed 17 mph    
Max Gust Speed -    
Visibility 9 miles    
Events      
Averages and records for this station are not official NWS values.
T = Trace of Precipitation, MM = Missing Value Source: NWS Daily Summary

Daily Weather History Graph

Daily Weather History Graph

Search for Another Location

Airport or City:

Astronomy

Aug. 25, 2019 Rise Set
Actual Time 6:25 AM PDT 7:32 PM PDT
Civil Twilight 5:59 AM PDT 7:57 PM PDT
Nautical Twilight 5:28 AM PDT 8:28 PM PDT
Astronomical Twilight 4:56 AM PDT 9:00 PM PDT
Moon 1:11 AM PDT (8/25) 3:49 PM PDT (8/25)
Length of Visible Light 13h 58m
Length of Day
13h 06m
Waning Crescent, 28% of the Moon is Illuminated
Aug 25
Waning Crescent
Aug 30
New
Sep 5
First Quarter
Sep 13
Full
Sep 21
Last Quarter

Hourly Weather History & Observations

Time (PDT) Temp. Dew Point Humidity Pressure Visibility Wind Dir Wind Speed Gust Speed Precip Events Conditions
12:51 AM 64.9 °F 62.1 °F 90% 29.96 in 9.0 mi Calm Calm - N/A   Clear
1:51 AM 64.9 °F 61.0 °F 87% 29.96 in 8.0 mi Calm Calm - N/A   Partly Cloudy
2:08 AM 64.9 °F 62.1 °F 90% 29.95 in 8.0 mi Calm Calm - N/A   Mostly Cloudy
2:51 AM 66.0 °F 63.0 °F 90% 29.96 in 8.0 mi Calm Calm - N/A   Overcast
3:51 AM 64.9 °F 62.1 °F 90% 29.96 in 8.0 mi NNE 3.5 mph - N/A   Overcast
4:04 AM 64.9 °F 61.0 °F 87% 29.95 in 7.0 mi Calm Calm - N/A   Overcast
4:40 AM 64.0 °F 61.0 °F 90% 29.96 in 7.0 mi Calm Calm - N/A   Scattered Clouds
4:51 AM 64.0 °F 60.1 °F 87% 29.96 in 9.0 mi Calm Calm - N/A   Clear
5:51 AM 63.0 °F 59.0 °F 87% 29.96 in 9.0 mi Calm Calm - N/A   Clear
6:51 AM 63.0 °F 59.0 °F 87% 29.98 in 9.0 mi Calm Calm - N/A   Partly Cloudy
7:18 AM 64.0 °F 60.1 °F 87% 29.98 in 8.0 mi Calm Calm - N/A   Overcast
7:51 AM 64.9 °F 62.1 °F 90% 29.98 in 1.5 mi NNW 4.6 mph - N/A   Overcast
7:58 AM 64.9 °F 62.1 °F 90% 29.98 in 3.0 mi NW 3.5 mph - N/A   Overcast
8:42 AM 68.0 °F 62.1 °F 81% 29.98 in 6.0 mi West 4.6 mph - N/A   Haze
8:51 AM 68.0 °F 62.1 °F 81% 29.98 in 7.0 mi West 4.6 mph - N/A   Partly Cloudy
9:51 AM 72.0 °F 63.0 °F 73% 29.98 in 10.0 mi WNW 6.9 mph - N/A   Partly Cloudy
10:51 AM 70.0 °F 62.1 °F 76% 29.99 in 10.0 mi West 9.2 mph - N/A   Scattered Clouds
11:51 AM 71.1 °F 62.1 °F 73% 29.98 in 10.0 mi West 10.4 mph - N/A   Scattered Clouds
12:51 PM 71.1 °F 62.1 °F 73% 29.97 in 10.0 mi West 12.7 mph - N/A   Clear
1:51 PM 71.1 °F 62.1 °F 73% 29.96 in 10.0 mi WNW 12.7 mph - N/A   Partly Cloudy
2:51 PM 72.0 °F 63.0 °F 73% 29.95 in 10.0 mi West 12.7 mph - N/A   Partly Cloudy
3:51 PM 71.1 °F 62.1 °F 73% 29.93 in 10.0 mi West 15.0 mph - N/A   Scattered Clouds
4:24 PM 71.1 °F 62.1 °F 73% 29.92 in 10.0 mi West 15.0 mph - N/A   Mostly Cloudy
4:51 PM 70.0 °F 62.1 °F 76% 29.92 in 10.0 mi West 17.3 mph - N/A   Mostly Cloudy
5:51 PM 68.0 °F 62.1 °F 81% 29.91 in 10.0 mi West 16.1 mph - N/A   Overcast
6:10 PM 66.9 °F 62.1 °F 84% 29.90 in 10.0 mi West 12.7 mph - N/A   Overcast
6:23 PM 68.0 °F 62.1 °F 81% 29.90 in 10.0 mi WNW 13.8 mph - N/A   Overcast
6:51 PM 68.0 °F 62.1 °F 81% 29.90 in 10.0 mi West 12.7 mph - N/A   Mostly Cloudy
7:51 PM 66.0 °F 62.1 °F 87% 29.91 in 10.0 mi WNW 9.2 mph - N/A   Overcast
8:51 PM 66.0 °F 62.1 °F 87% 29.92 in 10.0 mi NW 3.5 mph - N/A   Overcast
9:51 PM 66.0 °F 62.1 °F 87% 29.91 in 10.0 mi NW 5.8 mph - N/A   Scattered Clouds
10:51 PM 64.9 °F 62.1 °F 90% 29.91 in 9.0 mi West 4.6 mph - N/A   Clear
11:51 PM 66.0 °F 62.1 °F 87% 29.91 in 9.0 mi NW 3.5 mph - N/A   Clear